User: anonymous   Login
Location: Prague
(50.0830°N, 14.4670°E)
Time: 20:00:29
(UTC+01:00)
Language:

PRISM - Orbit

View from above orbital plane
View from above orbital plane
View from above satellite
View from above satellite

Ground track
Ground track

The orbit data is extracted from the following two-line orbital elements,

1 33493U 09002B   21341.48018237  .00002075  00000-0  18014-3 0  9998
2 33493  98.2122 312.6201 0016784  75.6471 284.6612 14.98152023700235
Epoch (UTC): 07 December 2021 11:31:27
Eccentricity: 0.0016784
inclination: 98.2122°
perigee height: 561 km
apogee height: 584 km
right ascension of ascending node: 312.6201°
argument of perigee: 75.6471°
revolutions per day: 14.98152023
mean anomaly at epoch: 284.6612°
orbit number at epoch: 70023

The dashed part of the orbit path shows where the satellite is in the earth's shadow,  

DLR